Satellite: CO-58
Catalog number: 28895
Epoch time:      07255.66517273
Element set:    0825
Inclination:      098.1202 deg
RA of node:       150.7692 deg
Eccentricity:    0.0017237
Arg of perigee:   196.6540 deg
Mean anomaly:     163.4107 deg
Mean motion:   14.59582804 rev/day
Decay rate:        9.7e-07 rev/day^2
Epoch rev:           09985
Checksum:              345

Satellite: NCUBE2
Catalog number: 28897
Epoch time:      07256.27856318
Element set:     351
Inclination:      098.1191 deg
RA of node:       151.3183 deg
Eccentricity:    0.0016615
Arg of perigee:   196.2321 deg
Mean anomaly:     163.8349 deg
Mean motion:   14.59747065 rev/day
Decay rate:        8.6e-07 rev/day^2
Epoch rev:            9222
Checksum:              320

Satellite: NMARS
Catalog number: 29662
Epoch time:      07126.39603970
Element set:     263
Inclination:      051.6121 deg
RA of node:       302.3682 deg
Eccentricity:    0.0004459
Arg of perigee:   252.1654 deg
Mean anomaly:     110.7411 deg
Mean motion:   16.47981436 rev/day
Decay rate:   7.031946e-02 rev/day^2
Epoch rev:            2165
Checksum:              289

Satellite: FCAL
Catalog number: 29667
Epoch time:      07256.71231781
Element set:     315
Inclination:      051.6330 deg
RA of node:       349.0061 deg
Eccentricity:    0.0013354
Arg of perigee:   336.3252 deg
Mean anomaly:     023.7144 deg
Mean motion:   15.91285209 rev/day
Decay rate:     1.7475e-04 rev/day^2
Epoch rev:            4208
Checksum:              278

Satellite: FALCON
Catalog number: 30776
Epoch time:      07256.75066074
Element set:     139
Inclination:      035.4341 deg
RA of node:       035.7601 deg
Eccentricity:    0.0000297
Arg of perigee:   194.2640 deg
Mean anomaly:     165.8068 deg
Mean motion:   15.02762921 rev/day
Decay rate:       1.97e-06 rev/day^2
Epoch rev:            2838
Checksum:              293

Satellite: MAST
Catalog number: 31126
Epoch time:      07256.72671387
Element set:     132
Inclination:      098.0764 deg
RA of node:       326.7209 deg
Eccentricity:    0.0095675
Arg of perigee:   111.2143 deg
Mean anomaly:     249.9276 deg
Mean motion:   14.53363899 rev/day
Decay rate:       3.44e-06 rev/day^2
Epoch rev:            2171
Checksum:              309

Satellite: CAPE1
Catalog number: 31130
Epoch time:      07255.77672855
Element set:    0114
Inclination:      098.0753 deg
RA of node:       325.4573 deg
Eccentricity:    0.0104005
Arg of perigee:   115.1564 deg
Mean anomaly:     246.0462 deg
Mean motion:   14.51883148 rev/day
Decay rate:        3.0e-08 rev/day^2
Epoch rev:           02132
Checksum:              264

/EX





More information about the Keps mailing list